Location: Zagreb
(45.8000°N, 16.0000°E)
Time: 15:21:06
(UTC+02:00)

Transit 2A - Pass Details

Date: 16 August 2022
Orbit: 601 x 956 km, 66.7° (Epoch: 25 September)

Event Time Altitude Azimuth Distance (km) Brightness Sun altitude
Rises 19:54:38 0° 327° (NNW) 2,860 9.9 0.5°
Reaches altitude 10° 19:56:51 10° 328° (NNW) 1,961 9.1 0.1°
Maximum altitude 20:01:14 87° 58° (ENE) 629 5.7 -0.6°
Drops below altitude 10° 20:05:50 10° 147° (SSE) 2,055 7.8 -1.3°
Sets 20:08:12 0° 148° (SSE) 3,009 8.6 -1.7°
